Hourly Data Report for February 04, 2021

KUGAARUK CLIMATE
NUNAVUT
Current Station Operator: ECCC - MSC

68°32'15.060" N
89°47'47.020" W
15.80 m
2303094
71407
NBB

Download Data

Hourly Data (February 2021)
Hourly Data Report for February 4, 2021
TIME
LST
Temp Definition
°C
Dew Point Definition
°C
Rel Hum Definition
%
Precip. Amount Definition
mm

Wind Dir Definition
10's deg

Wind Spd Definition
km/h
Visibility Definition
km
Stn Press Definition
kPa
Hmdx Definition


Wind Chill Definition


Weather Definition


00:00 -45.8 -49.7 65 0.0 5 4   102.44   -52 LegendNANA
01:00 -45.2 -49.1 65 0.0 5 7   102.41   -55 LegendNANA
02:00 -45.2 -49.1 65 0.0   0   102.38     LegendNANA
03:00 -45.4 -49.3 65 0.0 5 5   102.37   -53 LegendNANA
04:00 -45.1 -49.0 65 0.0 4 7   102.34   -55 LegendNANA
05:00 -44.0 -47.9 66 0.0 11 4   102.31   -50 LegendNANA
06:00 -44.8 -48.8 65 0.2 5 6   102.29   -54 LegendNANA
07:00 -44.3 -48.2 65 0.0 7 3   102.25   -49 LegendNANA
08:00 -44.0 -47.9 65 0.0   0   102.24     LegendNANA
09:00 -43.7 -47.7 65 0.2 7 3   102.24   -48 LegendNANA
10:00 -42.7 -46.7 65 0.3 5 3   102.23   -47 LegendNANA
11:00 -41.7 -45.9 64 0.9 6 1   102.20   -43 LegendNANA
12:00 -40.1 -44.2 65 0.2   0   102.17     LegendNANA
13:00 -40.8 -44.8 65 0.2 0 1   102.14   -42 LegendNANA
14:00 -41.5 -45.4 66 0.0 6 5   102.15   -49 LegendNANA
15:00 -40.4 -44.2 67 0.0   0   102.15     LegendNANA
16:00 -40.4 -44.2 67 0.0   0   102.14     LegendNANA
17:00 -41.3 -45.2 66 0.0 7 1   102.10   -43 LegendNANA
18:00 -39.4 -43.2 67 0.0 0 1   102.07   -41 LegendNANA
19:00 -37.6 -41.2 69 0.0   0   102.03     LegendNANA
20:00 -37.5 -41.2 68 0.0 9 5   102.01   -44 LegendNANA
21:00 -36.9 -40.5 69 0.2 7 5   101.99   -43 LegendNANA
22:00 -36.1 -39.7 70 0.0 9 6   101.95   -44 LegendNANA
23:00 -36.4 -39.9 70 0.0 6 7   101.95   -45 LegendNANA

Notes on Data Quality.

Legend

  • E = Estimated
  • M = Missing
  • NA = Not Available*
  • [empty] = Indicates an unobserved value
Date modified: